FENGYUN 1C DEB, 35191

Orbit data source: Space-Track

FENGYUN 1C DEB, 35191 is space debris in SSO originally from a launch on Mon, 10 May 1999 UTC launched from the Taiyaun Space Center, China (TSC). Fengyun 1C debris stems from the Chinese weather satellite Fengyun-1C, which was intentionally destroyed by a Chinese anti-satellite missile in 2007. This event dramatically increased the amount of space debris, with thousands of trackable fragments posing hazards to satellites and human spaceflight. The Fengyun 1C debris cloud has become a focal point in discussions about space sustainability and the need for international regulations to prevent the creation of new debris.

Loading next visibility...
Identifier
35191, 1999-025DNX
Orbit
SSO
Country
Flag of CNCN / PRC
Related business
Manufacturer
Unknown
Mission
Spacecraft
Bus & Motor
Unknown
Mass
Unknown
Launch date (UTC)
1999-05-10 (27 years ago)
Launch vehicle
Unknown
Launch site
Taiyaun Space Center, China (TSC)
Object type
Payload
Rocket body
Debris
Shape & HBR
Unknown shape, 0.1 m
Radar Cross Section
Small (<0.1 m²)

Expand to show TLE details & history
Last TLE update: 10 hours ago

TLE from 10 hours ago
0 FENGYUN 1C DEB
1 35191U 99025DNX 26255.20921325  .00000058  00000-0  76623-4 0  9999
2 35191  99.0452 234.7506 0102319 184.5043 175.5205 13.91329173917043
Epoch: 2026-09-12T05:01Z
TLE epoch observation values (Epoch: 2026-09-12T05:01:16.024Z)
Latitude
-0.00008°
Longitude
168.21235°
Altitude
1,001.346 km
Speed
7.313 km/s
True Right ascension
15h 39m 00s
True Declination
0° 00' 00"
Sunlit
Object was in daylight at epoch
Visualization orbit readout
Latitude
Unknown
Longitude
Unknown
Altitude
Unknown
Speed
Unknown
Apparent Right ascension
Unknown
Apparent Declination
Unknown
Sunlit
N/A
Visualization observer readout
Local Sidereal Time
07:38:38
Azimuth
Unknown
Elevation
Unknown
Doppler factor
Unknown
Orbital elements
Apogee altitude
995.875 km
Perigee altitude
846.503 km
Semi-major axis
7,299.326 km
Eccentricity
0.01023
Inclination
99.0452°
RAAN
234.7506°
Arg. of periapsis
184.5043°
True anomaly
175.61092°
Mean anomaly
175.5205°
Eccentric anomaly
175.56582°
Mean motion
3.48032 °/min
Orbital period
103.44 mins
BSTAR
0.000076623
Loading maneuver chart data...
Computing Atmospheric mass density...
Loading historical data...
Loading historical data...
Loading historical data...
Loading historical data...
Loading historical data...
Loading historical data...
Loading historical data...

Documentation

Showing up to 5 results
|